UAL977 KDEN-KATW

Flight info

Callsign UAL977
Flight time 1h 56m
Altitude 35000
Route EEONS8 WYNDM KP66C KG75I OSH
Aircraft A21N/M-SDE2E3FGHIRWXY/LB1

Departure

Time 2026-05-09 02:30
Airport Denver International Airport (KDEN)

Arrival

Time 2026-05-09 04:27
Airport Appleton International Airport (KATW)
Time Latitude Longitude Altitude Speed Heading
2026-05-09 01:28 39.85937 -104.67707 5385 ft 0 kts 180°
2026-05-09 02:12 39.85938 -104.67707 5385 ft 1 kts 180°
2026-05-09 02:12 39.85961 -104.67707 5385 ft 4 kts 180°
2026-05-09 02:12 39.85988 -104.67707 5382 ft 4 kts 180°
2026-05-09 02:13 39.86015 -104.67706 5385 ft 4 kts 180°
2026-05-09 02:13 39.86027 -104.67706 5385 ft 0 kts 180°
2026-05-09 02:20 39.86020 -104.67696 5381 ft 3 kts 106°
2026-05-09 02:21 39.86024 -104.67657 5385 ft 5 kts 76°
2026-05-09 02:21 39.86037 -104.67605 5385 ft 7 kts 70°
2026-05-09 02:21 39.86056 -104.67539 5382 ft 9 kts 71°
2026-05-09 02:21 39.86065 -104.67454 5384 ft 11 kts 88°
2026-05-09 02:22 39.86065 -104.67350 5384 ft 12 kts 90°
2026-05-09 02:22 39.86064 -104.67229 5382 ft 14 kts 90°
2026-05-09 02:22 39.86063 -104.67094 5384 ft 16 kts 90°
2026-05-09 02:22 39.86063 -104.66943 5382 ft 17 kts 90°
2026-05-09 02:23 39.86062 -104.66780 5384 ft 19 kts 90°
2026-05-09 02:23 39.86059 -104.66644 5384 ft 14 kts 91°
2026-05-09 02:23 39.86025 -104.66521 5385 ft 14 kts 111°
2026-05-09 02:23 39.86016 -104.66384 5389 ft 16 kts 90°
2026-05-09 02:24 39.86021 -104.66290 5391 ft 10 kts 76°
2026-05-09 02:24 39.86078 -104.66235 5391 ft 12 kts
2026-05-09 02:24 39.86162 -104.66230 5385 ft 13 kts
2026-05-09 02:24 39.86256 -104.66229 5387 ft 14 kts
2026-05-09 02:25 39.86366 -104.66228 5387 ft 17 kts
2026-05-09 02:25 39.86487 -104.66225 5386 ft 18 kts
2026-05-09 02:25 39.86616 -104.66223 5385 ft 19 kts 360°
2026-05-09 02:25 39.86752 -104.66224 5379 ft 20 kts
2026-05-09 02:26 39.86893 -104.66221 5374 ft 21 kts
2026-05-09 02:26 39.87040 -104.66218 5372 ft 22 kts
2026-05-09 02:26 39.87192 -104.66216 5368 ft 22 kts
2026-05-09 02:26 39.87351 -104.66213 5365 ft 23 kts
2026-05-09 02:27 39.87501 -104.66212 5365 ft 17 kts
2026-05-09 02:27 39.87558 -104.66211 5367 ft 7 kts
2026-05-09 02:27 39.87614 -104.66209 5366 ft 9 kts
2026-05-09 02:27 39.87636 -104.66209 5366 ft 0 kts
2026-05-09 02:28 39.87677 -104.66209 5367 ft 8 kts 360°
2026-05-09 02:29 39.87736 -104.66191 5365 ft 10 kts 41°
2026-05-09 02:29 39.87753 -104.66116 5364 ft 4 kts 91°
2026-05-09 02:29 39.87753 -104.66107 5365 ft 0 kts 86°
2026-05-09 02:29 39.87756 -104.65860 5362 ft 64 kts 92°
2026-05-09 02:30 39.87748 -104.64975 5353 ft 129 kts 90°
2026-05-09 02:30 39.87738 -104.63588 5334 ft 171 kts 91°
2026-05-09 02:30 39.87695 -104.61999 5696 ft 175 kts 94°
2026-05-09 02:30 39.87610 -104.60400 6206 ft 179 kts 96°
2026-05-09 02:31 39.87507 -104.58769 6695 ft 182 kts 95°
2026-05-09 02:31 39.87498 -104.57092 7104 ft 191 kts 87°
2026-05-09 02:31 39.87912 -104.55385 7389 ft 209 kts 64°
2026-05-09 02:31 39.88482 -104.53583 7816 ft 223 kts 75°
2026-05-09 02:32 39.88846 -104.51554 8192 ft 240 kts 76°
2026-05-09 02:32 39.89235 -104.49334 8460 ft 262 kts 76°
2026-05-09 02:32 39.89662 -104.46946 8824 ft 279 kts 75°
2026-05-09 02:32 39.90116 -104.44426 9269 ft 292 kts 75°
2026-05-09 02:33 39.90582 -104.41824 9907 ft 298 kts 75°
2026-05-09 02:33 39.91067 -104.39150 10439 ft 311 kts 75°
2026-05-09 02:33 39.91581 -104.36327 10755 ft 330 kts 75°
2026-05-09 02:33 39.92125 -104.33334 11047 ft 350 kts 75°
2026-05-09 02:34 39.92699 -104.30165 11330 ft 369 kts 75°
2026-05-09 02:34 39.93303 -104.26831 11603 ft 387 kts 75°
2026-05-09 02:34 39.93928 -104.23367 12052 ft 397 kts 75°
2026-05-09 02:34 39.94559 -104.19846 12655 ft 401 kts 75°
2026-05-09 02:35 39.95197 -104.16289 13267 ft 405 kts 74°
2026-05-09 02:35 39.95839 -104.12685 13832 ft 410 kts 74°
2026-05-09 02:35 39.96488 -104.09051 14385 ft 415 kts 74°
2026-05-09 02:35 39.97145 -104.05361 14930 ft 420 kts 73°
2026-05-09 02:36 39.97806 -104.01632 15470 ft 424 kts 73°
2026-05-09 02:36 39.98475 -103.97859 16017 ft 429 kts 73°
2026-05-09 02:36 39.99151 -103.94051 16567 ft 434 kts 72°
2026-05-09 02:36 39.99834 -103.90193 17095 ft 439 kts 72°
2026-05-09 02:37 40.00524 -103.86284 17625 ft 444 kts 72°
2026-05-09 02:37 40.01218 -103.82335 18117 ft 449 kts 72°
2026-05-09 02:37 40.01917 -103.78349 18634 ft 453 kts 72°
2026-05-09 02:37 40.02613 -103.74327 19134 ft 458 kts 72°
2026-05-09 02:38 40.03282 -103.70239 19646 ft 462 kts 73°
2026-05-09 02:38 40.03947 -103.66106 20163 ft 467 kts 73°
2026-05-09 02:38 40.04622 -103.61958 20660 ft 469 kts 73°
2026-05-09 02:38 40.05307 -103.57772 21114 ft 472 kts 73°
2026-05-09 02:39 40.05760 -103.55000 21413 ft 475 kts 73°
2026-05-09 02:39 40.06451 -103.50769 21851 ft 478 kts 73°
2026-05-09 02:39 40.07147 -103.46497 22313 ft 482 kts 73°
2026-05-09 02:39 40.07841 -103.42205 22763 ft 485 kts 73°
2026-05-09 02:40 40.08541 -103.37884 23191 ft 488 kts 73°
2026-05-09 02:40 40.09243 -103.33531 23602 ft 492 kts 73°
2026-05-09 02:40 40.09946 -103.29152 24039 ft 495 kts 73°
2026-05-09 02:40 40.10652 -103.24742 24444 ft 498 kts 73°
2026-05-09 02:41 40.11364 -103.20291 24829 ft 500 kts 73°
2026-05-09 02:41 40.12075 -103.15838 25205 ft 503 kts 73°
2026-05-09 02:41 40.12788 -103.11364 25676 ft 503 kts 73°
2026-05-09 02:41 40.13496 -103.06895 26202 ft 501 kts 72°
2026-05-09 02:42 40.14201 -103.02438 26681 ft 500 kts 72°
2026-05-09 02:42 40.14892 -102.97992 27160 ft 499 kts 73°
2026-05-09 02:42 40.15578 -102.93564 27632 ft 497 kts 72°
2026-05-09 02:42 40.16268 -102.89136 28102 ft 496 kts 72°
2026-05-09 02:43 40.16959 -102.84721 28564 ft 495 kts 72°
2026-05-09 02:43 40.17640 -102.80318 28995 ft 494 kts 72°
2026-05-09 02:43 40.18320 -102.75928 29416 ft 492 kts 72°
2026-05-09 02:43 40.19009 -102.71551 29806 ft 491 kts 72°
2026-05-09 02:44 40.19706 -102.67171 30193 ft 490 kts 72°
2026-05-09 02:44 40.20391 -102.62811 30573 ft 489 kts 72°
2026-05-09 02:44 40.21067 -102.58452 30949 ft 488 kts 72°
2026-05-09 02:44 40.21736 -102.54105 31297 ft 487 kts 72°
2026-05-09 02:45 40.22400 -102.49772 31652 ft 486 kts 72°
2026-05-09 02:45 40.23066 -102.45426 31979 ft 485 kts 71°
2026-05-09 02:45 40.23724 -102.41103 32289 ft 485 kts 71°
2026-05-09 02:45 40.24380 -102.36782 32585 ft 484 kts 71°
2026-05-09 02:46 40.25028 -102.32517 32903 ft 483 kts 71°
2026-05-09 02:46 40.25679 -102.28209 33178 ft 482 kts 71°
2026-05-09 02:46 40.26341 -102.23849 33426 ft 482 kts 71°
2026-05-09 02:46 40.26979 -102.19610 33698 ft 481 kts 71°
2026-05-09 02:47 40.27622 -102.15329 33957 ft 480 kts 71°
2026-05-09 02:47 40.28268 -102.11030 34204 ft 479 kts 71°
2026-05-09 02:47 40.28908 -102.06750 34427 ft 479 kts 71°
2026-05-09 02:47 40.29544 -102.02478 34640 ft 479 kts 71°
2026-05-09 02:48 40.30179 -101.98189 34869 ft 478 kts 71°
2026-05-09 02:48 40.30812 -101.93924 35006 ft 477 kts 71°
2026-05-09 02:48 40.31440 -101.89651 34999 ft 477 kts 71°
2026-05-09 02:49 40.32672 -101.81144 34967 ft 476 kts 71°
2026-05-09 02:49 40.33935 -101.72623 34952 ft 476 kts 71°
2026-05-09 02:50 40.35173 -101.64092 34946 ft 477 kts 71°
2026-05-09 02:50 40.36391 -101.55555 34940 ft 477 kts 71°
2026-05-09 02:51 40.37638 -101.47026 34947 ft 476 kts 71°
2026-05-09 02:51 40.39069 -101.38562 34944 ft 472 kts 67°
2026-05-09 02:52 40.40704 -101.30231 34956 ft 471 kts 67°
2026-05-09 02:52 40.42333 -101.21897 34951 ft 471 kts 67°
2026-05-09 02:53 40.43953 -101.13553 34949 ft 472 kts 67°
2026-05-09 02:53 40.45561 -101.05219 34937 ft 472 kts 67°
2026-05-09 02:54 40.47173 -100.96868 34929 ft 472 kts 67°
2026-05-09 02:54 40.48767 -100.88565 34931 ft 472 kts 68°
2026-05-09 02:55 40.50362 -100.80191 34933 ft 472 kts 67°
2026-05-09 02:55 40.51954 -100.71836 34924 ft 472 kts 67°
2026-05-09 02:56 40.53545 -100.63453 34920 ft 473 kts 68°
2026-05-09 02:56 40.55130 -100.55042 34918 ft 473 kts 68°
2026-05-09 02:57 40.56704 -100.46654 34908 ft 473 kts 68°
2026-05-09 02:57 40.58277 -100.38254 34902 ft 473 kts 68°
2026-05-09 02:58 40.59836 -100.29863 34902 ft 473 kts 68°
2026-05-09 02:58 40.61391 -100.21455 34902 ft 473 kts 68°
2026-05-09 02:59 40.62945 -100.13045 34900 ft 473 kts 68°
2026-05-09 02:59 40.64491 -100.04632 34902 ft 473 kts 68°
2026-05-09 03:00 40.66033 -99.96204 34908 ft 473 kts 68°
2026-05-09 03:00 40.67565 -99.87803 34911 ft 471 kts 68°
2026-05-09 03:01 40.69084 -99.79411 34912 ft 471 kts 68°
2026-05-09 03:01 40.70598 -99.71015 34908 ft 471 kts 68°
2026-05-09 03:02 40.72111 -99.62592 34912 ft 472 kts 68°
2026-05-09 03:02 40.73619 -99.54173 34911 ft 471 kts 68°
2026-05-09 03:03 40.75119 -99.45755 34908 ft 472 kts 68°
2026-05-09 03:03 40.76611 -99.37338 34900 ft 471 kts 68°
2026-05-09 03:04 40.78098 -99.28924 34901 ft 471 kts 68°
2026-05-09 03:04 40.79573 -99.20511 34888 ft 471 kts 68°
2026-05-09 03:05 40.81027 -99.12166 34885 ft 470 kts 68°
2026-05-09 03:05 40.82496 -99.03759 34882 ft 470 kts 68°
2026-05-09 03:06 40.83951 -98.95353 34879 ft 470 kts 68°
2026-05-09 03:06 40.85400 -98.86935 34879 ft 470 kts 68°
2026-05-09 03:07 40.86846 -98.78524 34872 ft 469 kts 68°
2026-05-09 03:07 40.88280 -98.70125 34871 ft 469 kts 68°
2026-05-09 03:08 40.89711 -98.61719 34862 ft 468 kts 68°
2026-05-09 03:08 40.91128 -98.53329 34860 ft 468 kts 68°
2026-05-09 03:09 40.92547 -98.44919 34855 ft 468 kts 68°
2026-05-09 03:09 40.93968 -98.36466 34873 ft 476 kts 70°
2026-05-09 03:10 40.95398 -98.27892 34881 ft 477 kts 70°
2026-05-09 03:10 40.96817 -98.19327 34880 ft 477 kts 70°
2026-05-09 03:11 40.98230 -98.10749 34874 ft 477 kts 70°
2026-05-09 03:11 40.99646 -98.02167 34868 ft 477 kts 70°
2026-05-09 03:12 41.01683 -97.93944 34861 ft 467 kts 61°
2026-05-09 03:12 41.03967 -97.85897 34859 ft 467 kts 61°
2026-05-09 03:13 41.07366 -97.73791 34860 ft 467 kts 62°
2026-05-09 03:13 41.09618 -97.65712 34860 ft 468 kts 62°
2026-05-09 03:14 41.11864 -97.57623 34860 ft 467 kts 62°
2026-05-09 03:14 41.14105 -97.49533 34862 ft 467 kts 61°
2026-05-09 03:15 41.16336 -97.41455 34851 ft 467 kts 61°
2026-05-09 03:15 41.18569 -97.33360 34850 ft 467 kts 62°
2026-05-09 03:16 41.20789 -97.25279 34850 ft 466 kts 61°
2026-05-09 03:16 41.23005 -97.17174 34842 ft 466 kts 62°
2026-05-09 03:17 41.25212 -97.09078 34841 ft 466 kts 61°
2026-05-09 03:17 41.27396 -97.01038 34839 ft 466 kts 61°
2026-05-09 03:18 41.29594 -96.92934 34832 ft 467 kts 61°
2026-05-09 03:18 41.31786 -96.84828 34820 ft 465 kts 61°
2026-05-09 03:19 41.33966 -96.76716 34815 ft 466 kts 61°
2026-05-09 03:19 41.36147 -96.68594 34813 ft 465 kts 61°
2026-05-09 03:20 41.38311 -96.60500 34827 ft 465 kts 61°
2026-05-09 03:20 41.40477 -96.52384 34813 ft 465 kts 61°
2026-05-09 03:21 41.42628 -96.44272 34812 ft 464 kts 61°
2026-05-09 03:21 41.44776 -96.36162 34821 ft 464 kts 61°
2026-05-09 03:22 41.46909 -96.28050 34817 ft 464 kts 61°
2026-05-09 03:22 41.49049 -96.19931 34796 ft 464 kts 61°
2026-05-09 03:23 41.51184 -96.11791 34797 ft 464 kts 61°
2026-05-09 03:23 41.53312 -96.03663 34803 ft 463 kts 61°
2026-05-09 03:24 41.55428 -95.95543 34798 ft 464 kts 61°
2026-05-09 03:24 41.57544 -95.87398 34793 ft 465 kts 61°
2026-05-09 03:25 41.59651 -95.79245 34791 ft 465 kts 61°
2026-05-09 03:25 41.61758 -95.71072 34783 ft 465 kts 61°
2026-05-09 03:26 41.63859 -95.62902 34777 ft 465 kts 61°
2026-05-09 03:26 41.65600 -95.56099 34782 ft 465 kts 62°
2026-05-09 03:27 41.67691 -95.47910 34782 ft 465 kts 62°
2026-05-09 03:27 41.69779 -95.39697 34782 ft 466 kts 62°
2026-05-09 03:28 41.71857 -95.31483 34776 ft 467 kts 62°
2026-05-09 03:28 41.73951 -95.23229 34781 ft 468 kts 63°
2026-05-09 03:29 41.76023 -95.14956 34783 ft 469 kts 63°
2026-05-09 03:29 41.78090 -95.06676 34776 ft 470 kts 63°
2026-05-09 03:30 41.80165 -94.98374 34784 ft 470 kts 64°
2026-05-09 03:30 41.82239 -94.90065 34777 ft 470 kts 64°
2026-05-09 03:31 41.84319 -94.81743 34775 ft 471 kts 64°
2026-05-09 03:31 41.86376 -94.73399 34769 ft 472 kts 65°
2026-05-09 03:32 41.88442 -94.65043 34761 ft 471 kts 64°
2026-05-09 03:32 41.90500 -94.56697 34762 ft 472 kts 65°
2026-05-09 03:33 41.92545 -94.48313 34754 ft 472 kts 65°
2026-05-09 03:33 41.94584 -94.39940 34751 ft 472 kts 65°
2026-05-09 03:34 41.96626 -94.31554 34745 ft 473 kts 65°
2026-05-09 03:34 41.98659 -94.23161 34737 ft 472 kts 65°
2026-05-09 03:35 42.00691 -94.14755 34739 ft 472 kts 66°
2026-05-09 03:35 42.02707 -94.06351 34733 ft 472 kts 66°
2026-05-09 03:36 42.04720 -93.97939 34734 ft 472 kts 66°
2026-05-09 03:36 42.06717 -93.89575 34734 ft 472 kts 66°
2026-05-09 03:37 42.08729 -93.81087 34731 ft 473 kts 66°
2026-05-09 03:37 42.10711 -93.72710 34735 ft 474 kts 66°
2026-05-09 03:38 42.12710 -93.64256 34735 ft 474 kts 66°
2026-05-09 03:38 42.14703 -93.55782 34733 ft 475 kts 66°
2026-05-09 03:39 42.16683 -93.47274 34735 ft 476 kts 66°
2026-05-09 03:39 42.18679 -93.38748 34726 ft 478 kts 66°
2026-05-09 03:40 42.20680 -93.30170 34736 ft 479 kts 67°
2026-05-09 03:40 42.22672 -93.21571 34734 ft 481 kts 67°
2026-05-09 03:41 42.24664 -93.12931 34733 ft 483 kts 68°
2026-05-09 03:41 42.26654 -93.04263 34731 ft 485 kts 68°
2026-05-09 03:42 42.28652 -92.95538 34736 ft 488 kts 68°
2026-05-09 03:42 42.30651 -92.86762 34732 ft 489 kts 69°
2026-05-09 03:43 42.32646 -92.77954 34725 ft 491 kts 69°
2026-05-09 03:43 42.34648 -92.69111 34730 ft 493 kts 69°
2026-05-09 03:44 42.36616 -92.60207 34719 ft 494 kts 70°
2026-05-09 03:44 42.38600 -92.51282 34713 ft 496 kts 70°
2026-05-09 03:45 42.40599 -92.42342 34709 ft 497 kts 70°
2026-05-09 03:45 42.42635 -92.33387 34706 ft 499 kts 70°
2026-05-09 03:46 42.44629 -92.24386 34710 ft 500 kts 70°
2026-05-09 03:46 42.46623 -92.15379 34720 ft 500 kts 71°
2026-05-09 03:47 42.48610 -92.06336 34733 ft 500 kts 70°
2026-05-09 03:47 42.51074 -91.97611 34734 ft 493 kts 56°
2026-05-09 03:48 42.54685 -91.89673 34737 ft 496 kts 53°
2026-05-09 03:48 42.58355 -91.81728 34719 ft 497 kts 54°
2026-05-09 03:49 42.61982 -91.73740 34718 ft 497 kts 54°
2026-05-09 03:49 42.65623 -91.65740 34718 ft 498 kts 54°
2026-05-09 03:50 42.69254 -91.57718 34713 ft 498 kts 54°
2026-05-09 03:50 42.72883 -91.49690 34707 ft 499 kts 54°
2026-05-09 03:51 42.76507 -91.41634 34699 ft 500 kts 55°
2026-05-09 03:51 42.80134 -91.33560 34698 ft 500 kts 55°
2026-05-09 03:52 42.83754 -91.25483 34700 ft 500 kts 55°
2026-05-09 03:52 42.87386 -91.17360 34692 ft 502 kts 55°
2026-05-09 03:53 42.90988 -91.09268 34691 ft 502 kts 55°
2026-05-09 03:53 42.94606 -91.01112 34692 ft 503 kts 55°
2026-05-09 03:54 42.98231 -90.92920 34690 ft 504 kts 55°
2026-05-09 03:54 43.01857 -90.84718 34690 ft 505 kts 56°
2026-05-09 03:55 43.05470 -90.76499 34693 ft 505 kts 56°
2026-05-09 03:55 43.09119 -90.68224 34688 ft 505 kts 56°
2026-05-09 03:56 43.12704 -90.60020 34687 ft 505 kts 56°
2026-05-09 03:56 43.16183 -90.52042 34689 ft 505 kts 56°
2026-05-09 03:57 43.19747 -90.43871 34689 ft 506 kts 56°
2026-05-09 03:57 43.23351 -90.35594 34684 ft 506 kts 56°
2026-05-09 03:58 43.26941 -90.27293 34678 ft 506 kts 56°
2026-05-09 03:58 43.30529 -90.18986 34679 ft 505 kts 56°
2026-05-09 03:59 43.34098 -90.10695 34681 ft 505 kts 56°
2026-05-09 03:59 43.37664 -90.02380 34682 ft 504 kts 57°
2026-05-09 04:00 43.41232 -89.94061 34681 ft 506 kts 56°
2026-05-09 04:00 43.44802 -89.85712 34537 ft 505 kts 57°
2026-05-09 04:01 43.46579 -89.81544 34130 ft 506 kts 57°
2026-05-09 04:01 43.48360 -89.77356 33825 ft 507 kts 57°
2026-05-09 04:01 43.50134 -89.73172 33559 ft 507 kts 57°
2026-05-09 04:01 43.51911 -89.68976 33280 ft 507 kts 57°
2026-05-09 04:02 43.53682 -89.64787 32613 ft 505 kts 57°
2026-05-09 04:02 43.55453 -89.60605 31768 ft 505 kts 57°
2026-05-09 04:02 43.57232 -89.56415 30859 ft 506 kts 57°
2026-05-09 04:02 43.59004 -89.52217 29927 ft 507 kts 57°
2026-05-09 04:03 43.60773 -89.47997 28923 ft 509 kts 57°
2026-05-09 04:03 43.62541 -89.43786 27918 ft 510 kts 57°
2026-05-09 04:03 43.64324 -89.39549 26886 ft 510 kts 56°
2026-05-09 04:03 43.66098 -89.35326 25827 ft 509 kts 56°
2026-05-09 04:04 43.67863 -89.31105 24785 ft 507 kts 56°
2026-05-09 04:04 43.69624 -89.26890 23830 ft 502 kts 56°
2026-05-09 04:04 43.71347 -89.22750 23139 ft 492 kts 56°
2026-05-09 04:04 43.73034 -89.18692 22806 ft 484 kts 56°
2026-05-09 04:05 43.74693 -89.14647 22689 ft 483 kts 56°
2026-05-09 04:05 43.76358 -89.10622 22662 ft 483 kts 56°
2026-05-09 04:05 43.78038 -89.06584 22664 ft 483 kts 56°
2026-05-09 04:05 43.79704 -89.02548 22678 ft 483 kts 57°
2026-05-09 04:06 43.81365 -88.98513 22689 ft 483 kts 56°
2026-05-09 04:06 43.83035 -88.94474 22692 ft 483 kts 56°
2026-05-09 04:06 43.84712 -88.90429 22692 ft 483 kts 56°
2026-05-09 04:06 43.86392 -88.86413 22692 ft 483 kts 56°
2026-05-09 04:07 43.88077 -88.82367 22692 ft 484 kts 56°
2026-05-09 04:07 43.89747 -88.78327 22687 ft 484 kts 57°
2026-05-09 04:07 43.91416 -88.74263 22691 ft 484 kts 57°
2026-05-09 04:07 43.93067 -88.70195 22692 ft 484 kts 57°
2026-05-09 04:08 43.94717 -88.66121 22690 ft 482 kts 57°
2026-05-09 04:08 43.96321 -88.62155 22675 ft 459 kts 57°
2026-05-09 04:08 43.97841 -88.58397 22672 ft 436 kts 57°
2026-05-09 04:08 43.99297 -88.54807 22647 ft 416 kts 56°
2026-05-09 04:09 44.00678 -88.51394 22644 ft 396 kts 56°
2026-05-09 04:09 44.01994 -88.48123 22648 ft 383 kts 56°
2026-05-09 04:09 44.02859 -88.45974 22667 ft 383 kts 56°
2026-05-09 04:09 44.04594 -88.41669 22670 ft 383 kts 56°
2026-05-09 04:10 44.05455 -88.39533 22611 ft 380 kts 56°
2026-05-09 04:10 44.06744 -88.36336 22151 ft 378 kts 56°
2026-05-09 04:10 44.08029 -88.33155 21616 ft 377 kts 56°
2026-05-09 04:10 44.09313 -88.29979 20861 ft 377 kts 56°
2026-05-09 04:11 44.10604 -88.26793 20082 ft 379 kts 56°
2026-05-09 04:11 44.11900 -88.23602 19282 ft 380 kts 56°
2026-05-09 04:11 44.13206 -88.20391 18480 ft 381 kts 56°
2026-05-09 04:11 44.14509 -88.17198 17688 ft 380 kts 56°
2026-05-09 04:12 44.15815 -88.14000 16922 ft 379 kts 56°
2026-05-09 04:12 44.17112 -88.10817 16171 ft 377 kts 56°
2026-05-09 04:12 44.18400 -88.07652 15398 ft 373 kts 56°
2026-05-09 04:12 44.19672 -88.04520 14642 ft 368 kts 56°
2026-05-09 04:13 44.20919 -88.01436 13891 ft 364 kts 56°
2026-05-09 04:13 44.22153 -87.98382 13135 ft 359 kts 56°
2026-05-09 04:13 44.23364 -87.95372 12381 ft 354 kts 56°
2026-05-09 04:13 44.24561 -87.92398 11635 ft 349 kts 56°
2026-05-09 04:14 44.25735 -87.89488 10911 ft 343 kts 56°
2026-05-09 04:14 44.26920 -87.86633 10302 ft 333 kts 56°
2026-05-09 04:14 44.28078 -87.83930 10034 ft 317 kts 56°
2026-05-09 04:14 44.29227 -87.81301 9908 ft 316 kts 56°
2026-05-09 04:15 44.30402 -87.78717 9853 ft 315 kts 51°
2026-05-09 04:15 44.31920 -87.76560 9962 ft 310 kts 32°
2026-05-09 04:15 44.33799 -87.75130 9839 ft 308 kts 12°
2026-05-09 04:15 44.35862 -87.74915 9271 ft 294 kts 345°
2026-05-09 04:16 44.37682 -87.76012 8686 ft 284 kts 322°
2026-05-09 04:16 44.39307 -87.77565 8234 ft 280 kts 318°
2026-05-09 04:16 44.40682 -87.79426 7764 ft 273 kts 304°
2026-05-09 04:16 44.41660 -87.81662 7291 ft 267 kts 290°
2026-05-09 04:17 44.42178 -87.84110 7034 ft 259 kts 275°
2026-05-09 04:17 44.42320 -87.86585 7990 ft 252 kts 271°
2026-05-09 04:17 44.42400 -87.89126 8139 ft 265 kts 270°
2026-05-09 04:17 44.42482 -87.91687 8244 ft 264 kts 270°
2026-05-09 04:18 44.42570 -87.94245 8176 ft 263 kts 270°
2026-05-09 04:18 44.42656 -87.96796 7983 ft 261 kts 270°
2026-05-09 04:18 44.42741 -87.99306 7702 ft 256 kts 270°
2026-05-09 04:18 44.42826 -88.01785 7387 ft 254 kts 270°
2026-05-09 04:19 44.42908 -88.04251 7076 ft 258 kts 271°
2026-05-09 04:19 44.42991 -88.06777 6981 ft 260 kts 271°
2026-05-09 04:19 44.43074 -88.09263 6969 ft 248 kts 271°
2026-05-09 04:19 44.43151 -88.11584 6962 ft 229 kts 270°
2026-05-09 04:20 44.43222 -88.13761 6692 ft 223 kts 270°
2026-05-09 04:20 44.43291 -88.15925 6286 ft 222 kts 270°
2026-05-09 04:20 44.43360 -88.18090 5880 ft 223 kts 270°
2026-05-09 04:20 44.43428 -88.20258 5467 ft 223 kts 270°
2026-05-09 04:21 44.43496 -88.22417 5102 ft 223 kts 270°
2026-05-09 04:21 44.43564 -88.24595 4986 ft 224 kts 270°
2026-05-09 04:21 44.43699 -88.28959 4980 ft 225 kts 270°
2026-05-09 04:22 44.43765 -88.31130 4991 ft 224 kts 270°
2026-05-09 04:22 44.43832 -88.33314 4996 ft 224 kts 270°
2026-05-09 04:22 44.43898 -88.35492 4998 ft 224 kts 270°
2026-05-09 04:22 44.43895 -88.37669 4995 ft 223 kts 260°
2026-05-09 04:23 44.43338 -88.39667 4991 ft 222 kts 233°
2026-05-09 04:23 44.42166 -88.41034 4892 ft 220 kts 210°
2026-05-09 04:23 44.40780 -88.41938 4483 ft 220 kts 206°
2026-05-09 04:23 44.39385 -88.42814 4092 ft 217 kts 206°
2026-05-09 04:24 44.38071 -88.43666 3944 ft 199 kts 207°
2026-05-09 04:24 44.36880 -88.44473 3830 ft 183 kts 208°
2026-05-09 04:24 44.35749 -88.45195 3578 ft 175 kts 205°
2026-05-09 04:24 44.34624 -88.45841 3138 ft 179 kts 204°
2026-05-09 04:25 44.33499 -88.46564 2725 ft 174 kts 207°
2026-05-09 04:25 44.32503 -88.47385 2339 ft 158 kts 209°
2026-05-09 04:25 44.31548 -88.48106 1922 ft 151 kts 205°
2026-05-09 04:25 44.30663 -88.48672 1633 ft 138 kts 205°
2026-05-09 04:26 44.29799 -88.49242 1454 ft 137 kts 206°
2026-05-09 04:26 44.28941 -88.49829 1333 ft 137 kts 206°
2026-05-09 04:26 44.28092 -88.50427 1197 ft 137 kts 206°
2026-05-09 04:26 44.27241 -88.51016 1012 ft 136 kts 206°
2026-05-09 04:27 44.26417 -88.51578 902 ft 113 kts 206°
2026-05-09 04:27 44.25986 -88.51874 908 ft 21 kts 206°
2026-05-09 04:27 44.25897 -88.51917 907 ft 11 kts 171°
2026-05-09 04:27 44.25847 -88.51855 905 ft 5 kts 120°
2026-05-09 04:28 44.25844 -88.51847 905 ft 0 kts 119°
2026-05-09 04:29 44.25837 -88.51828 904 ft 4 kts 118°
2026-05-09 04:29 44.25834 -88.51765 903 ft 9 kts 78°
2026-05-09 04:29 44.25856 -88.51663 898 ft 13 kts 73°
2026-05-09 04:29 44.25880 -88.51590 894 ft 8 kts 43°
2026-05-09 04:30 44.25955 -88.51571 895 ft 14 kts 360°
2026-05-09 04:30 44.26038 -88.51564 896 ft 13 kts 15°
2026-05-09 04:30 44.26094 -88.51521 896 ft 6 kts 45°
2026-05-09 04:30 44.26118 -88.51443 895 ft 12 kts 79°
2026-05-09 04:31 44.26123 -88.51335 893 ft 9 kts 89°
2026-05-09 04:31 44.26124 -88.51295 894 ft 4 kts 87°
2026-05-09 04:31 44.26113 -88.51247 893 ft 6 kts 152°
2026-05-09 04:31 44.26100 -88.51243 892 ft 4 kts 174°
2026-05-09 04:32 44.26078 -88.51248 893 ft 0 kts 196°
2026-05-09 04:35 44.26078 -88.51292 893 ft 0 kts 202°